Theta_e
316 316 317 317 317 317 317 317 317 316 316 316 316 316 316 317 318 318 319 320 321 322 323 324 326 327 329 330 330 329 329 329 329 328 329 329 330 331 332 332 332 331 331 331 331 331 332 332 332 332 332 332 332 332 332 333 332 330 331 331 329 328 328 329 330 330 330 330 328 327 327 327 326 324 321 319 319 318 315 315 319 319 312 305 301
316 316 316 316 316 316 315 315 315 315 315 315 315 315 315 316 316 316 316 317 318 320 321 322 324 325 326 328 329 329 328 328 329 329 329 329 328 329 331 332 331 330 331 332 332 332 331 331 331 331 332 332 331 331 332 333 332 331 331 331 329 328 328 329 329 329 329 330 328 327 327 327 326 325 321 319 319 318 314 313 318 323 320 311 302
315 315 315 315 315 315 314 314 314 315 314 314 314 314 314 314 314 314 314 315 316 317 318 319 320 322 324 326 329 330 329 327 327 328 328 329 328 327 329 331 331 331 332 332 332 332 331 330 329 330 330 331 330 330 331 333 333 332 331 330 330 328 328 329 328 327 326 327 328 327 327 327 326 326 323 320 319 317 314 312 313 320 324 320 311
314 314 314 314 314 314 313 313 314 314 313 313 313 313 312 313 313 313 313 313 313 314 314 315 316 319 321 324 327 328 329 328 327 327 328 329 329 328 329 331 331 331 331 331 331 331 331 330 329 330 331 330 330 329 330 332 333 332 331 330 330 329 328 328 328 327 327 327 328 328 328 327 327 326 323 320 318 316 314 314 315 318 322 322 319
313 313 313 313 313 313 312 313 313 313 312 312 312 312 311 311 312 311 311 311 311 311 311 311 313 315 317 321 324 326 327 327 326 326 327 328 330 329 329 329 330 331 330 329 329 330 330 330 330 331 331 330 330 330 330 331 332 332 331 330 330 329 328 328 327 328 328 327 327 328 329 327 326 326 324 319 318 317 314 314 317 319 319 319 320
313 313 313 312 312 312 312 312 312 311 311 311 311 311 311 310 310 310 309 309 309 309 308 308 309 312 313 317 321 322 321 320 319 320 323 325 328 329 328 328 329 329 328 327 328 328 329 330 330 330 331 330 330 329 329 330 330 332 331 330 330 329 328 328 328 329 328 327 327 328 328 328 326 326 325 321 319 318 315 313 315 318 318 318 317
312 312 312 312 311 311 311 310 310 310 310 310 310 310 310 309 309 309 308 308 308 307 306 306 307 308 309 312 316 316 314 315 315 316 318 320 323 326 328 328 329 329 328 327 328 329 328 329 330 330 330 331 330 329 329 330 330 331 331 330 330 330 328 328 329 329 328 327 327 328 327 327 327 326 325 323 321 321 317 313 312 315 317 316 315
311 311 311 311 310 310 310 310 310 310 309 310 310 309 309 308 308 308 308 307 307 306 305 305 305 305 305 307 311 311 310 309 309 310 313 316 319 322 325 327 328 329 328 328 328 329 328 328 328 329 329 330 331 330 330 330 330 330 330 330 331 331 329 328 328 328 328 327 327 327 326 325 326 326 325 324 321 321 319 315 312 313 314 315 315
310 310 310 310 310 310 309 309 309 309 309 309 309 309 308 308 307 307 307 306 306 306 305 304 304 304 303 304 306 308 305 303 303 305 307 311 314 318 322 324 327 328 328 328 329 328 328 328 327 328 329 330 331 331 330 330 329 329 330 331 331 330 328 327 327 327 327 326 327 327 325 324 325 325 324 323 321 320 320 316 314 313 313 315 315
309 309 309 309 309 309 309 308 308 308 308 308 308 308 308 307 307 307 307 306 306 305 305 304 304 303 302 302 303 304 302 299 300 303 305 307 310 314 318 321 325 327 328 328 328 328 329 329 329 329 330 330 330 331 331 330 329 329 331 331 331 330 328 326 326 327 327 326 327 327 325 324 325 325 323 320 319 320 320 317 315 315 315 315 315
308 308 308 308 308 308 308 308 307 307 307 307 307 307 307 307 307 307 307 306 306 305 304 304 304 303 302 301 301 302 300 298 299 301 304 306 308 311 314 318 321 324 326 328 328 327 328 329 330 330 330 329 329 329 330 330 330 330 331 331 331 331 329 326 326 327 327 327 327 327 325 324 324 324 321 319 319 319 319 318 316 316 316 316 316
307 307 307 307 307 307 307 307 307 307 306 306 306 306 306 306 306 306 306 306 306 305 305 304 304 303 302 302 301 301 300 298 298 300 302 304 306 309 312 315 318 321 324 326 327 327 327 328 330 330 329 328 328 328 329 330 330 330 330 331 330 331 329 328 327 327 327 327 327 327 325 324 324 324 321 318 319 319 318 318 317 316 316 316 317
306 306 306 306 306 306 306 306 306 306 306 305 305 305 305 305 305 305 305 305 305 305 305 304 304 303 302 302 301 301 299 298 298 299 300 303 305 308 311 314 316 319 322 323 325 327 328 329 329 329 330 330 330 329 329 330 330 330 330 330 330 329 329 329 328 328 328 327 327 327 326 325 325 325 323 319 319 319 318 318 317 316 316 317 317
306 305 305 305 305 305 305 305 305 305 305 305 305 304 304 304 304 304 304 304 304 304 304 304 304 303 302 301 301 301 300 298 298 298 299 301 304 307 310 313 315 317 320 322 324 325 326 327 328 328 328 329 330 330 330 330 330 330 329 328 328 329 329 328 328 328 327 327 326 326 326 325 325 325 323 321 321 321 319 318 318 318 318 318 317
305 305 304 304 304 304 305 305 305 305 304 304 304 304 304 304 304 304 304 303 303 303 303 303 303 303 302 301 301 301 300 298 297 297 298 300 303 306 310 312 313 315 318 320 322 323 324 326 326 327 327 328 328 328 329 329 330 329 328 327 327 328 328 328 328 328 327 327 326 326 326 326 326 325 324 323 324 323 321 321 321 321 321 321 320
304 304 304 304 303 303 304 304 304 304 304 303 303 303 303 303 303 303 303 303 303 303 303 302 302 301 301 301 300 300 299 298 297 297 297 299 302 305 307 309 311 314 316 318 320 323 324 325 326 326 327 327 327 327 327 328 329 328 326 325 326 326 326 327 327 328 328 327 327 327 327 327 326 326 325 324 325 324 323 323 323 323 322 323 322
304 303 303 303 303 303 303 303 303 303 303 303 303 302 303 303 302 302 303 303 302 302 302 302 301 300 300 300 299 299 298 297 297 297 297 297 299 301 302 304 307 311 312 314 318 322 324 325 325 326 326 326 326 326 326 326 327 326 325 325 325 324 324 325 326 327 327 327 327 327 328 327 326 325 326 325 325 325 325 324 323 324 323 322 321
303 303 303 303 302 302 302 302 302 302 303 303 302 301 301 302 302 302 302 302 302 302 302 301 301 300 300 299 299 298 298 297 297 297 297 297 297 297 298 300 302 306 309 311 315 318 321 323 324 325 326 326 326 326 326 326 325 325 325 326 324 322 322 324 325 326 327 327 327 327 328 328 326 325 325 325 325 326 325 324 324 324 323 321 320
302 302 302 302 302 302 301 301 301 301 302 302 301 300 300 300 301 301 301 301 302 302 301 301 301 300 300 299 299 298 297 297 297 297 297 297 297 297 297 297 299 302 305 307 310 312 313 316 319 322 323 325 326 326 325 324 324 324 326 326 323 321 322 323 324 325 325 325 325 326 327 327 327 327 326 324 324 325 324 324 323 322 321 321 320
302 302 302 301 302 302 301 301 301 300 300 301 301 300 299 299 300 300 301 301 301 301 301 301 300 300 300 299 299 298 297 296 296 297 297 297 297 297 297 296 297 299 300 301 304 306 307 309 312 315 317 320 323 324 324 324 323 323 325 325 322 321 321 322 323 324 322 322 323 323 323 323 323 323 322 321 321 321 321 322 322 320 320 320 319
302 302 301 301 301 301 301 301 300 300 300 300 300 299 298 298 299 299 300 300 300 301 300 301 301 300 300 299 299 298 297 296 296 297 297 297 297 297 297 297 297 297 297 297 298 300 301 303 305 308 310 314 318 321 321 322 323 322 324 324 323 322 322 321 321 320 319 320 320 319 318 317 316 316 317 316 317 318 318 319 320 320 320 319 318
301 301 301 301 301 301 301 301 300 300 300 299 299 299 299 298 298 298 299 300 299 299 300 300 300 300 299 299 299 298 297 297 296 296 297 297 297 297 297 297 297 297 297 296 296 297 298 300 302 303 306 309 314 317 318 318 320 320 321 322 323 323 322 320 319 317 317 318 317 315 314 313 312 312 312 312 312 313 315 316 317 317 318 318 317
301 301 301 301 301 300 301 301 300 300 299 299 299 299 299 298 298 298 298 298 298 298 299 299 300 299 298 298 298 298 298 297 296 296 296 297 297 297 297 297 297 297 296 296 296 296 296 298 300 302 303 304 308 313 314 315 316 318 320 321 322 321 319 318 317 316 316 315 314 313 312 311 310 309 309 308 308 310 311 312 312 314 315 314 313
301 301 301 301 301 300 300 301 300 300 300 299 299 299 299 298 298 298 298 298 298 297 298 298 298 298 298 298 297 297 297 297 297 296 296 296 297 297 297 298 298 297 296 296 295 295 296 297 298 300 302 301 302 306 310 311 312 315 318 319 319 318 317 316 315 315 313 311 309 309 308 308 307 307 307 306 306 307 308 309 309 309 309 309 308
300 301 300 300 300 300 300 300 300 300 300 299 299 299 299 298 298 297 297 297 297 297 296 297 297 297 297 297 297 296 296 296 297 297 296 296 296 296 297 297 298 298 297 296 296 295 296 296 297 298 299 299 298 300 304 305 306 308 311 314 315 314 313 312 311 309 307 305 304 303 304 304 305 305 304 304 304 304 305 305 305 305 305 305 304
300 300 300 300 300 300 300 300 300 300 300 300 299 299 299 298 298 297 297 297 296 296 296 296 296 297 297 296 296 296 295 295 296 296 297 296 296 296 296 296 297 298 298 297 297 297 296 296 296 296 296 297 296 295 297 300 302 302 303 305 307 307 307 306 305 303 302 301 301 301 301 302 302 303 303 302 302 302 301 301 301 301 301 301 301
300 300 300 300 300 300 300 300 300 300 300 300 299 299 299 299 298 297 296 296 296 296 296 295 295 296 296 296 295 295 294 294 294 295 296 296 296 296 296 296 296 296 296 296 296 296 296 296 296 296 296 296 295 294 294 296 298 297 298 299 300 300 301 301 301 300 299 299 299 299 300 300 301 301 302 302 302 301 300 299 300 299 299 298 299
300 300 300 300 300 300 300 300 299 300 301 300 299 299 299 299 298 297 295 294 295 295 295 295 295 295 295 295 294 294 294 294 294 294 295 296 296 296 296 296 295 295 295 295 295 295 296 296 296 296 296 295 295 295 294 294 295 294 294 295 296 296 297 298 298 298 298 299 299 299 299 300 300 300 301 302 302 301 300 299 299 299 299 298 299
300 300 300 300 300 300 300 300 299 300 300 301 300 299 298 298 298 297 295 294 294 294 294 294 294 294 294 294 294 294 294 294 294 294 294 295 296 296 296 296 296 295 294 294 295 295 295 294 294 293 293 293 293 293 293 294 294 294 294 293 293 294 295 295 296 296 296 297 297 298 298 299 299 299 300 300 300 301 301 300 300 300 300 300 300
300 300 300 300 300 300 300 300 299 299 300 300 300 300 299 299 298 297 296 295 294 294 294 294 293 293 294 294 294 294 293 293 294 294 294 295 296 296 296 296 296 296 295 294 295 294 293 292 292 291 291 291 291 291 291 292 292 293 294 294 293 293 293 293 294 294 295 295 295 296 296 297 297 298 298 298 299 299 300 300 300 300 300 300 300
300 300 301 301 300 300 300 300 299 299 299 299 299 299 299 299 299 298 297 297 295 294 294 294 293 293 293 293 293 293 293 294 294 294 295 295 295 296 297 297 296 296 296 295 294 294 293 292 291 291 291 291 291 291 291 291 291 291 292 293 293 293 293 293 293 294 294 294 294 295 295 295 296 296 297 297 298 298 299 299 299 299 299 299 299
301 300 300 300 300 300 300 300 299 299 299 299 299 299 299 299 299 298 298 297 297 295 294 294 294 293 293 293 293 293 293 293 294 294 295 295 295 296 297 297 297 296 296 295 295 294 293 292 292 291 291 291 291 291 291 291 291 291 291 291 292 292 292 292 293 293 294 294 294 294 294 294 295 295 295 296 297 297 298 298 299 299 299 299 299
301 300 300 300 300 300 300 300 299 299 299 299 299 299 298 298 298 298 298 297 297 296 295 294 294 293 293 293 293 293 293 293 293 294 295 296 296 297 297 297 297 296 296 296 295 295 294 293 292 292 292 292 292 292 292 292 292 292 292 292 292 292 292 292 293 293 293 293 293 293 293 294 294 294 295 295 296 296 297 297 298 298 299 299 299
300 300 300 300 300 300 300 300 299 299 299 299 298 299 298 298 297 298 297 297 297 296 296 295 294 294 293 293 293 293 293 293 292 293 294 295 296 296 297 297 297 296 296 296 296 295 295 294 293 292 292 292 292 292 292 292 292 292 292 292 292 292 292 292 293 293 293 293 293 293 293 294 294 294 294 295 295 296 297 297 297 298 298 298 298
300 300 299 299 299 300 300 299 299 299 298 298 298 298 298 298 297 297 297 297 296 296 296 296 295 294 294 294 294 293 293 293 292 293 294 294 295 295 296 296 296 296 296 296 296 296 295 295 294 293 292 292 292 292 292 292 292 292 292 292 292 292 292 292 292 292 292 293 293 293 293 294 294 294 294 295 295 296 296 296 297 297 297 297 297
300 300 298 297 298 300 300 299 298 298 298 298 298 298 298 298 297 297 297 296 296 296 296 296 296 295 294 294 294 294 293 293 293 292 293 294 294 295 295 295 295 295 295 296 296 295 295 295 294 294 293 293 292 292 292 292 292 292 292 292 292 292 292 292 292 292 292 292 292 293 293 293 294 294 294 294 294 295 295 296 296 296 296 296 296
301 300 298 297 298 300 300 298 297 298 298 298 298 298 297 297 297 297 297 296 296 296 296 296 295 295 294 294 294 294 294 293 293 292 293 293 294 294 294 294 295 295 295 295 295 295 295 294 294 294 294 293 293 292 291 291 291 292 292 292 292 292 292 292 292 292 292 292 292 292 293 293 293 293 293 293 294 294 294 295 295 295 295 295 296
300 299 297 297 298 299 299 298 298 298 298 298 298 298 297 297 297 297 297 297 296 296 296 296 295 295 294 294 294 294 294 294 293 293 293 293 293 293 294 294 294 294 295 295 295 295 295 294 294 294 294 293 293 292 291 291 292 292 292 292 292 292 292 292 292 292 292 292 292 293 293 293 293 293 293 293 293 293 294 294 294 294 295 295 295
300 300 298 297 298 298 298 298 298 298 298 297 298 297 297 297 297 297 297 296 296 296 296 296 295 295 294 294 294 294 294 294 293 293 293 293 293 293 293 293 294 294 294 294 294 294 294 294 294 294 293 293 293 292 292 292 292 292 292 292 292 292 292 292 292 292 292 292 292 292 292 293 293 293 293 293 293 293 294 294 294 294 294 294 294
300 300 299 298 298 298 298 298 297 297 297 297 297 297 297 297 297 297 296 296 296 296 296 296 295 295 294 294 294 294 294 294 293 293 293 293 293 293 293 293 293 293 293 293 293 293 293 293 293 293 293 293 293 293 293 293 292 292 292 292 292 292 292 292 292 292 292 292 292 292 292 292 293 293 293 293 292 293 293 293 293 294 294 293 294
299 300 299 298 298 297 297 297 297 297 297 297 297 297 297 297 297 297 297 296 296 296 296 296 295 295 295 294 294 294 294 293 293 293 293 293 293 293 293 293 293 293 293 293 293 293 293 293 293 293 293 293 293 293 293 292 292 292 292 292 292 291 291 292 292 292 291 291 292 292 292 292 292 292 292 293 293 293 293 293 293 293 293 293 294
299 299 299 298 298 297 297 297 297 296 297 297 297 297 297 297 297 297 297 296 296 296 296 296 296 295 295 295 294 294 294 294 293 293 293 293 293 293 293 293 293 293 293 293 293 293 293 293 293 293 293 293 292 292 292 292 292 292 292 292 292 291 291 292 292 291 291 291 292 292 292 292 292 292 292 292 292 292 292 293 293 293 293 293 293
299 299 298 298 298 297 297 297 297 296 296 296 296 296 296 297 297 297 297 296 296 296 296 296 296 296 296 295 295 294 294 294 293 293 293 293 293 293 292 292 292 293 293 292 292 292 292 292 292 292 292 292 292 292 292 292 292 292 292 292 292 292 292 292 292 291 292 292 292 292 292 292 292 292 292 292 292 292 292 292 292 292 292 293 293
298 299 298 297 298 298 297 297 297 296 296 296 296 296 296 297 297 297 297 297 296 296 296 296 296 296 296 296 295 295 294 294 293 293 293 293 293 292 292 292 292 292 292 292 292 292 292 292 292 292 292 292 292 292 292 292 292 292 292 292 292 292 291 292 291 291 292 292 292 291 291 291 291 291 291 291 292 292 292 292 292 292 292 292 292
298 298 297 297 297 298 297 297 296 296 296 296 296 296 296 296 297 297 297 297 297 296 296 296 296 296 296 296 295 295 295 294 294 293 293 293 293 292 292 292 292 292 292 292 292 292 292 292 292 292 292 292 292 292 292 292 292 292 292 292 292 291 291 291 291 291 291 292 291 291 291 291 291 291 291 291 291 291 291 291 291 291 291 291 292
298 298 297 296 297 297 297 297 296 296 296 296 296 296 296 296 296 296 297 297 297 296 296 296 296 296 296 296 295 295 295 295 294 294 293 293 293 292 292 292 292 292 292 292 291 291 292 292 292 292 292 292 292 292 292 292 292 292 292 292 292 291 291 291 291 291 291 291 291 290 290 290 290 290 290 290 290 290 290 290 291 291 291 291 291
298 297 296 296 297 297 297 297 296 296 296 296 296 296 296 296 296 296 296 297 296 296 296 296 296 296 296 295 295 295 295 295 294 294 293 293 293 293 292 292 292 292 292 291 291 291 291 292 292 292 291 291 291 292 291 291 292 292 292 291 291 291 291 291 291 291 291 291 291 290 290 290 289 289 289 289 289 290 290 289 289 290 291 291 291
297 296 296 296 297 297 297 296 296 296 296 296 296 295 295 296 296 296 296 296 296 296 296 296 296 296 296 295 295 295 295 295 294 294 294 293 293 293 292 292 292 292 291 291 291 291 291 291 291 291 291 291 291 291 291 291 291 291 291 291 291 291 291 291 291 291 291 291 291 290 290 289 289 289 288 288 288 288 288 288 289 289 290 291 291
296 296 296 297 296 296 296 296 296 296 296 296 296 295 295 296 296 296 296 296 296 296 296 296 296 296 295 295 295 295 295 294 294 294 294 294 293 293 293 293 292 292 292 291 291 291 291 291 291 290 290 289 289 290 290 290 290 290 290 290 290 289 290 290 291 291 290 290 290 290 290 290 289 289 288 288 287 287 287 287 288 288 289 290 291
296 296 296 296 296 296 296 296 296 296 296 295 295 295 296 296 296 296 296 295 295 295 295 295 295 295 295 295 295 295 295 295 294 294 294 294 294 293 293 293 292 292 292 292 291 291 291 291 291 290 290 289 289 289 290 290 290 290 289 289 288 289 289 290 290 290 290 290 290 290 290 290 289 288 288 288 287 287 287 288 287 287 288 289 290
297 296 296 296 296 296 296 296 296 296 296 295 295 295 296 295 295 295 295 295 295 295 295 295 295 295 295 295 295 295 295 294 294 294 294 294 294 294 293 293 293 292 292 292 292 291 291 291 291 291 290 290 289 289 290 290 289 289 288 288 288 288 289 289 290 290 290 289 289 289 290 289 289 288 288 287 287 287 288 288 288 287 287 288 290
Wind_Speed
15 16 16 17 18 19 19 20 20 20 21 20 20 21 21 21 22 23 23 23 23 24 25 25 26 26 27 28 26 23 22 23 25 24 25 27 27 27 26 25 26 27 27 29 30 29 28 27 26 27 27 27 28 27 27 27 27 28 26 22 20 20 18 15 10 7 14 21 25 24 25 29 27 25 25 24 25 26 24 23 22 20 23 25 26
16 17 17 18 19 19 19 19 20 21 22 21 21 22 22 21 22 23 24 24 24 24 24 25 25 26 26 28 29 26 23 23 24 24 25 27 28 28 26 26 26 26 27 27 28 29 29 29 29 27 26 27 28 27 27 26 26 27 26 23 22 22 20 15 11 7 7 12 22 23 24 30 28 24 26 27 27 27 25 25 23 22 23 23 24
16 17 18 19 20 20 19 20 20 22 22 22 23 23 23 22 23 23 24 24 25 26 26 27 27 27 26 27 27 26 24 23 24 25 26 27 28 29 27 26 26 26 27 27 26 28 29 29 29 28 26 25 27 28 26 22 22 24 25 25 23 22 19 16 13 12 11 14 20 21 21 28 28 25 26 28 28 27 26 25 25 24 24 24 23
17 18 18 19 20 21 21 21 22 23 23 23 24 24 23 23 23 23 24 24 25 25 26 28 29 28 27 26 26 26 25 25 25 26 27 25 25 25 25 24 25 26 26 27 26 25 26 27 27 27 26 25 26 29 27 23 20 22 24 24 24 23 20 17 16 18 14 16 19 21 20 24 27 24 23 26 30 30 27 25 25 25 25 23 24
17 18 19 19 20 21 21 21 22 23 24 24 25 24 24 24 24 23 24 25 25 25 27 28 28 28 27 26 26 26 24 23 24 25 25 23 22 24 24 23 24 24 24 25 25 23 23 26 27 26 26 27 28 27 26 24 22 23 24 24 25 25 21 19 20 19 15 15 19 21 20 22 24 23 22 25 28 28 26 25 25 26 25 24 23
18 18 19 19 20 20 21 22 23 23 24 24 24 25 25 25 25 25 25 25 26 26 29 30 28 28 27 26 26 26 24 23 24 23 23 22 22 24 24 22 22 22 22 23 23 23 22 23 25 25 24 26 27 25 23 24 24 25 26 26 25 24 22 20 21 21 18 19 20 19 23 24 23 21 23 26 28 27 26 25 24 25 26 26 25
18 19 20 19 19 20 20 21 22 23 23 23 23 24 25 25 26 25 25 26 26 27 29 30 29 28 29 27 25 26 28 28 28 27 25 24 23 22 21 21 22 21 20 22 23 23 24 24 25 25 24 25 26 25 24 25 24 25 27 26 23 23 23 21 23 23 20 20 20 15 19 23 24 24 24 25 27 28 28 27 24 25 27 28 28
18 19 19 19 20 20 20 20 21 22 22 22 23 24 24 25 25 25 26 26 26 27 29 29 29 31 33 31 26 28 33 35 36 34 31 28 25 22 20 21 23 21 19 20 21 21 22 24 27 27 26 26 26 26 26 27 25 24 26 26 22 22 23 22 22 21 19 20 18 10 12 16 19 26 28 25 26 27 28 29 27 26 27 28 28
17 18 19 19 19 19 19 21 21 22 23 23 24 24 24 25 25 25 26 26 26 27 28 29 29 32 36 36 30 29 37 43 42 38 34 30 28 25 22 20 22 23 21 20 21 20 20 23 26 27 27 27 27 26 27 28 27 26 27 26 24 23 22 22 20 16 17 20 17 9 13 17 17 22 28 27 27 29 28 28 28 27 27 28 28
17 18 18 18 19 19 20 20 21 22 23 23 24 24 25 25 26 26 26 26 26 27 28 29 29 29 33 38 36 31 38 48 45 38 34 31 29 27 24 21 20 22 22 21 21 20 19 20 24 26 26 26 26 25 27 29 29 28 27 27 26 25 24 24 23 21 21 23 20 13 14 18 19 21 28 28 25 28 29 28 27 26 25 24 25
17 17 17 18 19 19 19 20 21 21 22 23 24 24 25 25 26 26 26 26 26 27 28 27 28 29 28 33 37 33 38 50 49 41 37 32 29 28 26 24 21 20 20 20 21 20 19 20 21 22 24 25 25 26 28 29 29 28 28 29 29 27 25 25 27 28 26 23 21 18 17 21 24 25 27 27 22 25 29 29 28 27 23 19 18
18 18 19 19 19 19 19 20 21 21 22 23 23 23 24 25 25 26 26 27 26 26 27 26 27 28 26 29 35 34 37 48 52 47 41 35 31 28 26 24 22 20 20 20 22 22 20 19 19 19 21 23 24 26 27 26 26 27 29 32 32 31 31 29 29 30 29 25 22 23 24 26 27 26 24 23 20 21 26 28 28 28 25 21 18
18 19 20 20 20 20 21 21 21 22 23 23 23 23 24 24 25 26 26 26 26 26 27 26 26 27 29 32 34 31 36 48 53 50 46 40 33 29 25 24 22 20 20 20 22 21 19 18 18 18 19 19 21 23 24 25 25 27 29 30 32 32 33 33 31 29 30 29 26 26 27 29 29 26 21 21 20 20 23 25 26 28 26 24 23
19 19 20 20 21 21 21 21 21 22 23 23 24 24 24 24 25 25 25 25 27 27 27 27 26 27 32 37 33 28 34 46 51 51 50 45 36 29 25 22 21 20 19 20 21 20 19 20 20 20 18 19 20 21 22 23 24 28 31 29 29 31 30 29 28 26 28 30 28 28 29 30 32 31 24 22 21 20 21 22 22 22 21 20 20
18 18 19 20 21 22 22 21 22 22 23 24 24 24 24 25 25 25 24 25 26 26 26 27 28 27 31 35 34 30 34 44 49 50 52 49 39 31 26 22 21 20 20 20 21 20 19 20 20 20 18 17 18 19 21 23 23 25 29 29 28 28 28 27 27 26 27 30 30 31 31 31 34 35 30 26 22 20 20 18 15 15 14 13 13
18 18 19 20 21 22 22 23 23 23 23 24 25 25 24 24 25 25 24 24 25 25 25 26 28 28 29 31 32 31 34 42 48 49 51 51 44 35 31 27 25 23 21 21 21 20 19 18 18 18 18 17 18 19 22 24 23 20 21 24 25 23 22 24 26 26 28 30 29 29 31 33 33 31 29 27 25 23 22 16 11 12 11 8 8
17 18 19 20 21 22 22 23 23 23 23 24 26 27 25 24 25 25 24 23 24 25 25 25 26 27 28 30 31 31 33 41 47 48 49 51 47 40 34 31 27 24 23 23 21 20 19 18 16 17 17 17 19 22 23 24 23 20 19 23 22 19 20 23 25 25 27 29 27 24 26 29 31 30 27 27 27 27 25 18 14 15 13 9 7
17 18 19 19 20 22 23 24 24 24 25 25 27 28 27 26 25 25 24 23 23 23 25 25 25 27 27 28 30 32 34 39 45 47 47 49 48 41 35 33 31 28 27 25 22 18 14 13 15 16 16 17 19 20 21 23 23 21 21 20 18 18 21 24 25 25 23 23 25 26 25 24 26 27 25 24 24 24 23 20 18 16 12 11 9
17 17 18 18 19 21 23 23 23 24 25 25 26 27 27 27 26 25 24 24 23 22 24 24 25 26 26 27 29 31 34 38 43 46 46 47 47 43 38 36 35 31 29 27 24 22 17 10 7 10 13 16 18 18 16 18 18 18 19 15 15 19 22 24 26 26 23 21 24 28 27 23 22 22 20 18 18 18 19 19 19 18 15 14 15
16 17 18 19 19 20 22 22 23 24 23 22 23 25 28 28 27 26 25 24 23 22 23 24 24 24 26 27 28 30 32 37 42 43 44 45 45 43 41 39 36 32 29 29 28 26 24 20 14 11 12 12 15 17 16 16 14 14 17 14 15 19 19 21 24 23 20 20 21 23 23 22 20 18 16 15 14 15 17 16 15 18 17 16 18
15 15 17 18 19 19 20 22 24 24 23 22 21 22 27 29 27 26 26 24 24 24 23 23 24 25 25 26 28 29 31 36 40 41 41 43 44 43 42 40 37 34 31 30 30 29 29 27 23 20 19 15 12 11 12 14 12 12 15 15 14 17 17 18 19 18 18 19 19 18 18 18 17 16 15 15 14 14 15 14 13 17 20 20 22
14 16 17 17 18 19 18 19 22 21 22 24 21 21 25 28 26 26 25 24 25 25 24 24 24 25 25 26 27 28 29 34 39 40 39 40 41 42 41 38 35 33 33 33 33 31 30 28 25 23 21 17 11 7 6 7 7 10 13 14 14 16 18 18 17 17 18 20 21 22 21 21 22 21 20 19 18 17 17 16 15 17 18 21 24
14 15 16 15 17 18 16 17 20 21 21 23 22 21 25 26 25 25 25 24 24 24 24 24 24 24 24 26 27 27 28 31 37 40 39 39 39 39 38 37 35 33 33 33 33 34 33 30 26 23 23 22 16 7 5 5 2 8 11 12 14 16 17 17 19 19 18 17 19 22 22 22 23 23 22 22 21 20 21 20 19 19 19 19 19
15 15 15 14 16 17 16 15 18 19 21 23 22 21 23 24 23 23 23 22 22 22 23 23 23 23 23 24 26 27 28 30 34 37 39 38 38 38 36 35 35 35 34 33 33 35 35 33 29 25 24 27 25 18 15 14 12 11 12 15 19 22 22 20 20 21 20 17 18 21 22 23 24 24 23 23 23 23 24 24 24 23 23 23 23
14 15 15 14 16 17 17 16 15 16 18 21 20 19 20 21 21 22 22 22 21 21 21 21 21 21 21 22 24 26 28 30 33 35 36 36 37 38 36 34 32 33 34 35 34 34 34 33 32 31 29 29 31 28 25 24 21 19 19 21 23 25 25 24 24 26 26 24 23 24 24 24 24 24 24 24 25 25 25 26 26 26 26 26 24
14 14 14 15 16 16 17 16 15 14 16 18 18 17 17 18 19 20 21 21 20 20 20 20 20 19 19 20 22 24 27 31 33 33 34 34 35 36 36 36 33 30 30 32 32 33 34 35 35 36 35 34 34 34 32 31 30 28 26 25 26 26 27 29 30 31 29 27 25 24 24 24 25 25 26 26 25 25 25 26 25 24 23 24 24
13 13 14 14 14 15 16 17 16 14 14 15 17 17 15 15 17 18 18 19 20 19 20 21 21 20 18 19 21 23 26 30 32 32 31 31 32 33 34 35 35 32 31 31 32 33 34 35 35 36 37 37 36 37 37 36 36 35 33 30 30 30 30 32 33 33 31 30 29 26 25 25 25 25 26 27 26 25 25 26 26 25 24 25 25
12 12 13 14 14 14 15 16 16 14 12 12 14 16 15 14 14 15 16 18 19 19 19 21 22 21 19 18 20 22 26 30 32 31 29 27 27 29 31 32 33 33 31 31 32 33 34 35 36 37 37 38 38 38 39 40 39 38 35 32 32 32 32 34 34 33 31 31 31 29 27 26 26 25 25 26 26 25 25 26 27 25 25 27 27
13 12 12 13 14 13 14 15 16 15 12 9 9 13 15 15 13 11 13 16 19 21 21 22 23 22 20 20 20 21 25 29 31 31 29 25 23 24 26 28 29 29 29 29 31 34 35 36 37 36 36 36 36 35 35 36 37 37 35 33 32 32 33 34 34 32 30 31 32 31 29 28 27 25 25 25 25 24 25 26 26 25 25 27 25
13 13 12 13 13 13 14 15 15 16 15 12 8 7 10 13 13 12 12 14 17 20 22 23 25 25 24 23 22 22 24 27 29 30 29 27 23 20 21 24 27 27 27 27 29 32 33 32 32 32 31 32 33 32 32 32 32 33 32 31 31 32 32 33 33 32 32 32 32 32 31 30 28 26 25 24 24 24 25 25 25 25 24 24 22
12 13 13 13 13 12 14 14 14 14 14 14 13 10 9 10 11 12 13 14 14 17 20 23 24 26 28 27 25 25 26 25 26 28 28 28 26 20 18 21 25 25 25 26 27 28 28 28 29 29 28 29 30 29 30 30 30 29 29 29 29 29 30 29 28 29 30 30 30 30 30 28 27 25 24 22 22 22 23 23 23 22 21 20 19
10 10 11 13 13 12 13 14 15 15 14 14 16 16 15 13 11 10 12 14 14 14 17 21 23 27 32 32 28 27 28 27 26 26 26 28 27 20 15 17 21 23 25 25 24 24 24 24 25 26 27 28 28 28 29 29 29 29 29 29 28 28 28 27 26 26 27 27 27 27 26 24 23 22 21 20 19 19 18 19 19 20 19 18 16
10 10 10 14 14 12 11 11 13 16 17 15 15 15 15 16 15 12 11 13 14 11 11 17 22 28 33 33 29 27 28 28 27 25 25 27 26 21 15 15 16 20 23 23 21 21 22 22 22 23 24 25 26 26 27 27 27 28 28 27 26 26 26 25 25 26 26 25 25 24 23 21 21 21 19 18 17 16 15 15 16 17 17 16 15
9 10 11 14 14 13 13 11 11 14 14 14 14 14 15 16 17 16 13 14 15 12 8 11 20 28 31 31 29 26 27 29 28 26 26 27 26 23 20 18 17 18 20 20 19 19 19 20 20 21 22 23 23 24 24 25 25 26 26 25 25 25 24 25 25 25 24 23 22 21 19 18 17 17 16 16 16 15 14 14 14 14 13 13 14
9 10 12 13 13 14 13 12 12 12 12 12 12 14 14 15 15 16 15 15 16 15 12 12 18 25 28 30 28 25 25 29 30 28 27 28 27 25 24 23 20 20 20 19 18 18 18 18 18 18 20 21 21 21 21 22 22 23 23 23 23 23 23 23 23 22 21 20 19 17 16 16 15 14 14 14 14 14 14 13 12 12 13 13 15
9 10 11 11 11 14 13 12 13 11 11 13 12 13 13 14 15 14 15 15 15 16 16 15 16 20 23 27 26 22 22 26 29 28 27 27 27 26 25 24 22 21 20 19 18 17 18 17 16 16 17 18 18 19 19 19 19 20 20 21 21 22 22 21 21 20 19 18 16 15 14 14 14 14 14 14 14 13 13 12 11 12 13 13 13
6 8 10 10 10 13 14 13 15 14 12 13 16 15 12 13 14 14 14 15 15 16 16 15 16 18 21 24 24 21 20 23 26 27 27 28 27 26 25 24 22 20 19 19 18 17 17 16 15 15 16 16 16 17 17 19 20 20 19 19 20 20 19 18 18 18 17 15 14 13 13 13 13 13 13 13 13 13 12 12 12 11 10 11 10
3 6 11 11 8 10 11 11 13 15 13 12 15 15 13 13 15 14 12 14 15 15 16 16 15 16 19 21 21 19 19 20 23 25 26 27 27 26 25 24 23 21 19 19 18 16 15 15 15 15 15 15 14 15 15 16 16 16 17 16 15 14 14 14 13 13 13 13 12 12 12 13 13 12 12 11 11 10 10 10 11 11 11 12 11
1 4 10 11 8 9 11 10 10 12 13 11 12 14 14 14 13 13 13 13 13 13 14 14 13 14 17 20 19 18 18 19 21 22 23 24 24 24 23 24 25 24 22 21 21 19 17 16 16 15 14 13 12 12 12 12 12 12 13 13 13 13 13 13 12 11 11 11 11 11 11 12 12 12 12 11 11 12 12 11 10 10 10 12 14
3 2 6 8 7 9 11 10 9 10 12 12 11 11 12 12 13 13 14 13 11 11 13 14 11 12 15 18 18 17 17 18 18 18 19 20 21 21 21 21 23 23 23 22 22 21 19 18 17 15 13 12 11 10 11 11 11 11 11 11 12 13 13 12 12 12 11 11 11 10 10 11 11 10 10 10 10 11 12 11 11 9 8 9 14
6 6 6 7 8 9 9 9 9 10 10 10 8 6 7 9 12 13 14 13 11 11 12 12 10 11 13 16 16 16 16 16 16 16 16 16 17 18 19 18 18 19 20 21 20 20 19 18 17 16 15 14 11 10 9 8 8 9 10 10 10 11 11 11 11 11 12 12 12 11 10 10 10 10 8 7 8 8 7 7 8 7 7 8 11
7 6 5 7 8 8 8 8 10 11 11 11 10 7 6 9 10 11 12 13 12 12 11 10 10 10 11 13 14 14 14 15 15 14 14 13 14 15 16 17 17 17 17 17 18 18 17 16 16 16 16 16 16 14 13 10 8 8 9 9 7 7 8 9 9 10 11 11 10 10 9 8 9 11 10 10 10 11 9 8 6 6 8 10 11
7 7 7 9 10 9 8 9 10 10 10 12 12 10 8 10 11 11 12 13 13 12 11 10 9 9 9 11 12 13 14 14 14 13 11 11 11 12 13 15 16 16 15 15 16 16 16 15 14 14 14 14 15 17 18 17 14 10 9 8 8 7 7 7 8 10 11 10 7 7 7 7 8 10 10 9 9 10 11 12 12 11 11 12 12
8 7 6 8 9 7 7 9 10 8 8 12 13 11 11 12 11 10 11 12 13 13 12 10 8 7 8 9 10 11 12 13 13 12 10 9 9 10 11 12 13 13 13 13 14 15 15 15 15 14 13 13 13 14 15 15 15 15 13 12 13 13 11 10 11 13 14 12 10 9 8 7 7 8 10 10 9 9 9 11 13 13 13 12 11
9 6 5 6 7 6 5 7 9 9 11 14 13 11 12 12 10 9 10 11 12 12 12 9 6 6 6 8 8 10 11 11 12 12 11 9 9 10 11 11 11 12 11 11 12 13 13 14 14 14 13 12 12 13 12 10 10 12 12 12 12 13 12 11 13 15 13 12 14 15 14 10 8 9 11 12 12 10 9 10 11 11 11 10 8
7 6 4 4 6 6 6 7 7 8 11 12 12 11 11 10 9 10 11 11 11 11 11 8 6 6 7 7 8 8 9 9 9 10 11 10 9 10 11 11 11 11 10 10 12 12 11 11 12 12 12 12 13 14 15 12 7 6 8 8 8 8 8 8 11 13 12 11 14 16 16 15 14 12 11 12 11 9 7 8 7 6 6 6 4
6 5 4 3 4 6 7 7 7 9 10 10 11 13 12 10 9 11 11 10 11 11 11 9 7 6 7 8 8 7 8 8 8 8 9 10 9 9 10 11 12 11 9 9 11 12 11 9 9 10 11 12 11 12 16 14 9 6 6 6 5 5 5 5 7 10 11 11 13 13 12 12 14 13 11 10 9 7 8 9 6 3 3 3 2
5 4 5 3 3 6 7 6 7 9 11 10 12 13 13 10 10 10 10 9 10 11 11 11 9 7 6 7 7 6 6 7 7 7 8 9 9 9 9 10 12 11 8 8 10 12 12 10 9 9 11 11 9 9 12 12 9 7 8 7 6 4 3 3 4 6 8 9 11 12 11 10 10 10 10 10 8 6 7 9 7 6 6 5 3
2 3 5 4 3 6 8 7 7 8 9 11 11 12 12 11 11 10 10 10 10 11 11 11 11 8 7 6 6 6 6 7 7 7 7 7 8 8 9 10 10 10 9 8 9 11 11 10 9 9 11 11 9 8 9 9 8 9 10 9 9 8 5 3 3 4 5 7 9 12 13 11 9 8 8 9 8 7 6 6 5 5 6 5 3
1 3 5 5 6 7 5 6 8 8 7 9 10 12 11 11 11 11 11 11 10 10 10 11 11 10 8 7 6 6 7 8 7 6 6 6 6 7 8 9 10 10 9 8 9 10 10 9 8 9 10 10 8 8 8 8 10 12 12 11 9 8 5 3 3 4 5 6 7 9 12 13 10 8 7 8 8 7 6 5 4 3 3 5 4
2 2 5 6 9 9 5 5 7 8 5 6 8 10 11 11 10 11 11 12 11 11 10 10 11 10 9 8 6 6 7 9 8 5 4 5 6 7 7 8 8 9 8 8 8 9 9 9 9 9 10 8 5 5 8 10 12 13 13 10 8 6 4 4 4 4 6 7 6 6 9 11 10 8 8 8 8 8 6 5 5 4 5 5 4
Wind_Direction
18 19 16 14 14 12 8 6 3 359 355 355 354 349 346 343 341 339 337 335 333 330 327 326 325 326 327 324 319 315 311 308 305 299 294 289 276 267 261 250 246 248 244 239 235 229 226 224 220 220 220 218 218 218 216 217 216 212 214 217 211 212 224 240 247 217 205 200 195 199 193 183 184 184 184 189 191 193 195 196 202 205 202 202 201
21 22 18 16 17 14 10 7 2 359 359 359 357 354 351 348 346 345 344 342 339 337 335 332 328 325 324 324 323 321 314 307 305 301 296 289 281 275 265 252 252 252 244 239 233 226 225 226 223 220 220 221 222 220 219 221 220 218 220 220 215 208 202 209 219 225 248 211 188 191 190 182 184 187 183 186 188 187 189 194 203 207 203 203 202
23 24 21 19 18 15 11 8 4 2 3 2 1 360 355 352 352 351 349 347 345 344 343 342 339 333 328 323 323 324 320 313 310 305 298 289 280 277 270 259 255 250 242 238 233 226 224 225 225 222 219 220 224 227 224 221 222 222 223 224 226 220 206 198 190 192 241 241 202 191 185 180 186 192 188 189 189 185 185 194 203 204 203 206 208
23 24 23 22 20 17 13 8 4 5 6 5 4 2 358 356 356 355 355 353 351 350 348 347 346 345 340 331 326 326 321 317 316 311 304 295 283 279 278 270 261 252 244 241 237 230 223 222 224 224 222 220 222 227 226 221 221 223 223 222 221 221 218 214 203 194 216 238 215 197 188 182 188 195 187 182 186 186 185 191 197 198 201 209 214
24 26 26 24 20 17 14 10 7 6 5 4 3 2 2 1 360 360 360 358 357 356 354 353 352 353 350 342 341 341 333 326 328 323 315 306 292 284 282 277 268 257 248 244 242 237 230 225 223 223 222 219 218 222 223 221 221 222 221 219 217 219 217 214 216 210 212 232 221 199 191 191 192 193 185 177 181 186 187 190 192 194 199 206 212
23 27 28 26 21 18 16 12 9 7 5 4 3 3 5 5 4 4 3 1 1 360 359 359 358 355 352 350 354 1 1 355 351 344 332 320 306 292 282 276 271 261 254 251 246 241 238 232 226 224 221 217 218 220 220 219 219 220 219 215 214 215 209 203 212 212 207 226 228 198 189 197 194 189 189 185 182 183 188 193 194 196 200 202 205
22 27 28 26 22 20 19 14 11 9 6 4 5 5 7 8 6 6 5 5 4 2 1 1 360 359 0 0 0 3 6 5 360 354 345 336 325 310 297 285 274 265 260 260 252 242 240 236 230 226 222 221 223 222 220 219 218 219 218 214 209 209 205 200 207 207 204 224 236 210 189 197 195 193 198 197 188 184 186 190 194 200 203 201 201
23 27 28 26 23 21 20 15 12 10 7 8 8 8 8 9 8 8 8 8 7 4 3 2 2 4 8 9 4 358 2 5 1 356 349 342 335 324 312 298 285 275 267 262 256 247 241 238 236 233 228 226 225 223 222 223 222 222 221 213 203 204 205 203 205 203 199 219 239 228 200 207 201 196 202 205 196 188 186 187 190 199 204 202 201
26 27 28 26 23 21 20 17 14 11 10 10 9 8 9 9 9 10 9 9 8 6 6 5 4 6 9 12 11 2 2 4 1 356 352 346 340 332 319 307 296 287 278 266 258 254 248 243 239 237 233 229 228 227 226 224 223 223 221 212 201 200 201 201 208 206 199 217 235 216 204 224 219 200 204 209 197 187 187 186 187 197 203 200 200
27 28 27 26 25 23 21 19 16 14 14 12 10 9 8 8 9 10 11 10 9 7 7 7 6 7 8 11 13 8 4 4 2 357 354 350 343 337 328 315 303 290 280 270 264 261 259 252 241 235 235 232 230 230 228 225 223 222 222 218 209 201 191 187 199 208 204 211 221 205 200 226 237 222 213 210 196 186 186 183 184 195 200 193 193
27 26 26 27 26 25 22 20 18 17 16 14 13 11 9 8 8 8 9 10 10 9 9 9 8 7 7 8 11 10 3 4 4 360 356 352 345 340 333 323 312 295 284 279 276 273 268 260 251 243 240 236 232 232 229 226 224 222 225 225 219 212 203 189 190 199 202 206 210 205 202 219 238 236 216 204 196 187 186 182 182 192 195 188 185
27 26 26 25 25 23 22 21 19 19 19 17 14 13 11 11 9 7 6 6 7 9 10 11 9 7 5 5 7 7 2 2 4 3 359 355 348 340 332 327 319 303 291 284 282 281 272 262 260 253 245 239 237 235 231 228 228 225 226 229 229 230 228 217 202 197 198 199 201 204 203 210 230 238 217 201 195 188 186 184 184 190 194 193 191
31 29 28 25 24 22 21 21 18 18 19 16 15 15 13 13 11 8 5 4 5 6 7 9 12 11 9 5 2 4 3 1 3 5 2 357 351 343 334 329 323 313 299 289 283 280 271 261 258 253 250 246 239 235 232 230 231 228 226 226 225 226 226 223 218 211 204 198 197 206 209 209 220 227 212 199 200 196 190 188 188 191 195 198 200
33 31 30 27 25 23 20 20 21 21 19 15 16 16 14 13 12 9 9 7 6 5 4 6 11 13 12 9 4 3 3 1 3 5 3 0 356 349 342 336 331 323 312 301 290 279 274 273 264 254 255 256 247 240 233 228 228 228 225 218 214 215 216 215 215 213 206 199 196 205 211 213 218 220 208 197 201 199 194 193 192 193 196 202 205
33 30 30 29 27 23 19 19 21 23 21 17 17 19 17 15 12 9 11 12 9 7 6 7 8 9 9 9 7 5 3 3 6 7 5 4 1 357 355 351 343 334 325 315 303 286 277 279 268 253 254 258 254 247 236 227 224 224 221 218 217 217 216 215 214 211 210 207 202 204 209 213 218 218 210 204 204 198 195 198 197 194 197 203 199
31 29 30 31 29 25 20 20 20 19 20 20 19 18 17 18 14 9 10 13 12 10 10 10 10 9 8 8 8 6 3 5 8 9 8 7 6 6 4 357 347 340 334 328 318 298 280 277 275 266 260 257 253 251 243 231 222 217 217 219 219 214 209 211 214 211 211 209 204 205 210 213 216 217 213 211 211 205 202 206 216 220 215 205 186
32 29 30 31 32 28 23 22 21 17 18 23 22 16 13 15 15 13 10 12 14 13 12 12 12 10 9 10 10 7 6 7 10 12 12 11 11 9 5 357 351 347 342 336 327 311 289 277 281 280 270 263 260 257 253 241 226 216 219 221 214 205 201 205 211 212 211 209 203 203 210 213 215 217 217 216 216 215 212 211 220 227 218 198 184
35 33 31 30 33 34 29 25 24 20 19 24 25 17 11 11 12 13 12 10 13 16 14 13 13 12 9 10 11 10 9 9 12 14 14 14 15 12 5 0 359 357 353 348 345 341 319 287 279 278 270 265 265 261 257 250 234 218 217 215 198 187 191 195 201 205 207 208 206 206 210 212 209 212 217 218 217 218 214 203 196 195 189 182 178
37 35 34 31 32 38 36 29 27 27 24 26 28 20 13 11 9 10 12 11 13 19 19 15 14 14 11 9 9 10 10 10 13 16 16 16 17 16 12 8 4 1 359 357 358 5 6 351 311 286 270 258 257 258 258 255 246 231 223 207 173 175 189 190 189 192 191 189 190 193 196 196 195 199 202 197 193 196 197 193 186 178 170 170 171
38 36 34 31 29 35 38 31 27 28 26 27 31 26 17 13 10 9 12 12 12 18 21 17 14 13 13 12 9 9 9 10 14 18 19 19 20 19 18 15 10 7 7 5 3 4 6 8 8 348 318 286 264 260 260 260 258 248 238 214 169 170 190 195 191 188 179 171 170 173 176 176 176 180 178 168 162 171 182 190 196 195 192 182 174
39 39 36 35 31 32 40 38 28 25 26 25 30 32 24 17 14 12 12 13 13 15 17 15 13 13 13 13 11 11 10 11 15 19 21 21 22 22 22 20 16 15 16 16 13 10 7 8 12 10 355 332 299 275 270 270 267 251 239 227 196 184 195 201 196 183 170 165 162 156 150 143 136 131 131 131 132 145 162 170 179 192 198 191 181
35 39 35 35 35 32 41 48 36 25 26 26 27 35 30 21 18 18 15 14 15 14 13 14 14 14 13 11 11 12 12 14 17 20 22 23 24 25 25 24 22 21 21 22 22 20 18 17 18 21 19 4 337 312 309 300 267 234 230 229 216 204 202 197 183 168 163 161 152 138 128 119 112 109 108 110 115 125 137 144 148 159 172 180 179
30 42 37 34 40 35 35 50 43 28 25 27 28 34 31 22 20 22 19 18 18 15 12 13 13 13 12 11 10 10 12 14 17 20 23 24 24 26 27 28 28 28 25 23 24 25 26 28 28 32 38 36 30 33 45 46 129 198 215 215 199 188 181 168 154 147 146 145 137 129 123 117 112 109 106 106 110 117 120 121 125 134 140 144 148
27 39 38 34 42 38 30 43 48 35 25 27 28 30 28 24 22 23 21 21 22 18 15 13 12 11 9 8 9 9 9 11 14 19 23 25 24 26 28 29 31 33 31 28 27 29 31 34 36 42 49 47 45 57 79 84 96 126 151 160 157 153 149 144 141 136 129 119 109 103 103 106 108 108 108 110 113 116 117 115 114 119 122 122 122
38 36 32 31 38 38 29 33 46 44 33 28 28 29 28 25 22 22 23 23 21 19 18 16 14 11 7 7 7 7 8 9 11 16 20 23 24 26 28 30 31 33 34 33 32 35 38 40 42 45 52 52 45 50 67 78 80 90 112 129 135 137 136 133 128 121 111 100 93 89 90 96 103 107 110 112 113 113 114 113 110 111 114 115 115
51 41 32 31 35 36 31 27 35 48 44 34 30 31 31 29 25 22 23 22 21 19 16 14 13 11 10 10 7 6 7 7 8 11 15 18 21 23 26 31 33 34 36 35 35 37 40 43 45 46 50 53 47 42 51 67 72 69 77 95 107 114 119 120 116 109 102 95 91 89 90 96 103 109 110 108 107 108 110 111 109 107 111 112 107
50 44 34 29 29 36 34 24 26 46 54 40 33 33 32 29 27 26 25 23 22 21 16 12 11 9 10 10 7 5 7 7 6 7 9 11 15 19 21 26 30 34 37 37 36 38 39 41 45 47 50 54 53 45 46 58 65 60 57 66 80 91 99 105 106 103 100 98 96 93 95 99 103 105 106 104 103 104 107 109 106 105 107 106 99
45 48 41 27 19 29 35 24 22 41 53 41 35 37 36 31 29 31 34 35 33 29 24 18 13 10 9 9 6 5 9 8 6 5 5 5 9 14 17 20 23 27 32 36 38 41 42 41 42 44 46 49 50 48 47 51 56 55 50 53 63 75 85 93 95 95 96 100 100 97 96 96 94 92 95 98 100 102 101 100 100 102 104 101 95
29 37 44 34 17 18 30 26 23 34 42 35 35 38 34 33 35 34 35 41 43 42 38 32 25 19 17 16 10 4 4 5 5 7 8 6 5 10 17 19 19 20 26 34 40 43 43 41 38 38 41 43 44 44 45 48 54 56 52 49 52 61 70 77 81 83 86 92 95 94 93 91 87 86 86 86 90 97 100 99 97 95 94 94 94
27 13 23 30 18 18 29 25 19 26 30 23 26 39 30 27 31 33 30 34 43 46 45 39 34 31 28 25 18 8 3 3 5 9 12 10 6 10 21 24 21 17 20 30 39 41 40 38 36 35 38 41 43 43 43 45 49 54 57 55 53 56 60 65 71 76 79 81 83 85 86 84 82 82 80 75 77 85 92 96 97 96 95 96 97
44 13 4 6 4 16 30 22 15 26 30 17 12 22 26 19 20 26 27 26 34 45 46 41 39 35 30 26 19 13 9 6 4 7 11 10 6 6 18 28 27 21 18 25 32 36 37 38 37 37 39 42 44 45 46 47 47 50 56 60 59 60 62 63 68 76 79 79 79 81 81 81 81 80 79 75 75 79 86 93 98 100 101 102 103
53 31 2 348 351 17 30 16 9 21 27 18 13 16 19 17 14 18 25 22 22 34 43 43 41 33 26 21 15 10 8 6 0 0 7 10 8 5 11 26 31 27 22 24 29 32 35 38 40 41 42 44 46 48 50 52 52 53 54 56 57 61 65 68 72 77 80 80 81 81 81 81 83 84 84 82 80 81 86 94 100 104 108 110 112
53 48 13 350 350 11 25 16 14 21 19 11 10 15 19 20 15 11 21 23 14 11 31 40 37 28 20 18 16 11 9 8 5 4 8 12 15 17 17 22 32 32 27 26 29 32 36 40 43 45 47 46 46 49 51 52 56 58 58 57 56 57 62 67 72 74 75 77 78 79 80 81 83 85 86 86 86 86 87 94 104 111 113 115 116
51 52 24 0 350 355 8 22 35 33 16 359 1 15 23 22 14 9 18 27 17 1 0 22 26 22 18 16 17 16 13 12 12 13 15 18 21 25 25 24 30 34 29 29 32 33 35 41 44 45 47 48 47 48 50 51 54 57 58 59 60 61 63 65 67 67 69 71 72 73 77 81 84 86 87 89 93 96 98 103 108 109 106 107 112
39 41 22 7 349 341 357 28 45 36 10 352 4 22 22 14 11 10 18 29 22 7 359 8 17 19 15 12 14 19 18 15 16 17 19 22 25 25 24 22 25 27 26 29 35 36 35 39 43 43 46 49 50 49 49 49 52 55 58 60 61 62 61 61 61 61 63 65 67 70 75 80 82 86 89 92 95 98 101 102 102 99 95 96 99
30 29 13 4 344 331 346 26 41 25 356 346 5 27 23 11 10 11 17 28 23 7 5 13 16 15 11 8 11 19 21 18 19 22 23 25 27 26 22 19 19 21 23 26 33 38 37 37 40 44 46 48 48 47 48 51 54 59 62 63 63 63 62 60 61 62 63 63 63 66 72 79 83 88 90 91 94 97 96 93 93 96 99 100 97
19 25 17 12 355 342 352 14 21 14 5 359 4 15 19 15 13 9 14 29 28 9 4 15 19 15 10 7 9 17 21 20 23 26 25 26 29 28 24 20 18 19 22 26 31 37 40 38 39 44 46 46 46 49 55 62 64 64 64 63 62 62 61 60 60 61 60 59 60 62 66 74 83 90 93 92 93 95 94 91 89 88 92 101 103
30 53 38 25 4 344 351 7 12 11 14 11 3 6 17 22 14 6 10 26 28 13 5 15 25 21 12 8 8 14 18 20 25 28 25 24 26 27 24 22 19 17 20 25 28 33 40 42 42 44 46 48 51 54 57 61 60 57 56 55 53 51 52 54 57 57 54 55 60 64 68 73 78 81 84 85 84 84 87 88 84 76 75 80 79
72 77 44 29 5 338 343 5 17 9 10 15 9 8 17 18 7 4 11 19 24 19 12 17 30 29 17 12 12 12 16 21 25 27 25 22 21 22 22 23 22 21 22 25 27 30 36 41 42 44 47 51 53 50 44 42 44 47 50 51 50 51 53 54 57 62 61 60 63 67 71 77 80 81 79 76 73 74 78 81 84 84 82 73 61
336 3 24 14 351 332 337 358 17 12 14 25 18 6 9 8 1 6 12 10 14 27 21 18 27 29 19 18 17 15 18 23 24 25 27 24 20 19 19 20 23 24 24 25 26 29 33 36 37 38 40 44 49 47 42 44 49 52 54 56 58 60 60 56 56 58 57 56 61 66 71 76 81 84 85 84 80 81 83 86 88 90 88 80 74
338 344 359 346 334 334 338 352 11 12 9 14 9 358 10 16 8 5 3 359 8 30 26 14 18 20 13 15 20 20 21 24 22 23 26 25 22 21 19 18 19 22 24 26 26 27 29 29 27 26 27 29 32 37 42 50 58 59 60 64 66 64 62 60 58 58 57 57 62 68 74 74 67 62 67 74 75 79 86 93 95 91 90 96 96
333 335 332 317 329 354 360 0 14 13 356 349 353 357 19 32 20 4 356 357 8 23 23 13 14 13 5 8 15 20 23 24 22 23 25 25 25 25 22 18 17 18 20 24 25 24 23 22 20 21 23 23 23 24 23 26 43 60 60 57 59 63 64 63 66 70 70 65 63 67 73 69 56 50 51 51 49 51 55 62 77 90 94 97 100
315 319 323 320 335 2 6 359 14 21 355 335 333 340 10 35 29 8 358 360 5 9 11 10 11 10 6 9 12 15 20 24 23 24 27 28 29 29 26 22 21 18 17 21 24 23 21 19 20 23 25 23 21 18 14 17 32 47 45 37 44 59 67 65 64 58 49 41 42 54 61 64 65 63 56 45 40 43 45 48 55 64 69 75 82
300 307 324 330 338 357 359 352 4 15 347 324 325 345 17 31 27 11 0 356 355 358 2 7 13 12 8 9 12 13 17 21 21 20 24 30 33 31 26 22 20 19 17 18 20 21 20 20 21 24 25 23 19 13 8 15 29 36 34 36 46 52 53 49 44 38 33 32 35 39 39 49 69 68 53 42 45 56 54 44 42 46 52 57 63
304 313 331 334 331 338 350 354 0 1 343 332 338 4 17 12 9 13 4 348 345 356 2 8 27 38 23 14 14 14 15 18 18 16 21 32 38 33 26 18 12 11 17 23 22 18 16 18 20 20 18 16 16 12 6 8 21 28 27 32 42 48 47 37 28 24 24 28 34 37 40 51 65 66 54 45 46 56 58 38 26 35 49 53 46
301 311 324 329 325 325 337 352 356 352 341 336 344 1 4 356 2 14 5 347 345 355 360 3 29 53 45 29 22 17 13 14 15 15 19 29 34 30 26 20 6 359 9 27 25 16 12 14 17 17 12 7 5 6 8 11 25 44 40 32 36 44 43 32 29 33 33 30 31 37 44 48 47 46 47 46 46 51 47 29 26 47 64 60 58
293 306 311 317 326 325 329 345 355 345 336 343 356 358 354 359 14 13 1 350 349 351 352 358 17 46 53 41 32 26 19 12 8 9 15 24 28 26 28 26 12 2 11 27 23 17 15 9 4 7 10 4 357 360 9 18 38 67 60 51 60 62 42 23 33 44 44 35 32 36 44 47 43 37 32 32 38 35 15 7 13 39 32 23 79
299 321 320 325 333 321 322 344 360 344 339 359 12 358 345 356 16 9 355 354 355 351 351 356 5 27 50 43 34 37 29 11 5 7 10 17 22 19 19 19 14 13 23 23 13 15 20 12 2 8 11 5 359 4 10 17 30 39 34 34 38 30 355 319 346 19 28 27 30 36 42 47 47 40 29 21 17 5 352 356 6 14 10 16 68
328 336 318 317 317 313 322 345 354 344 352 13 11 348 342 6 18 3 352 1 0 351 351 355 357 8 32 34 28 33 26 10 6 8 5 6 11 9 7 8 9 14 23 14 0 9 21 20 16 18 10 0 3 9 4 2 11 14 11 11 7 356 332 290 303 343 2 10 22 34 37 32 28 31 26 15 6 0 351 344 350 2 5 6 28
135 319 303 296 294 303 334 0 346 339 7 22 2 343 353 15 12 353 355 7 360 348 352 358 356 1 15 16 10 17 15 4 2 8 4 359 1 1 1 2 3 10 20 15 4 9 18 16 11 10 5 2 11 12 356 348 352 352 352 356 358 351 339 314 309 329 348 351 3 29 34 27 21 21 12 355 350 0 6 353 336 324 314 317 330
184 256 278 288 300 312 346 1 328 322 358 20 358 349 1 9 1 353 0 4 353 346 354 2 358 359 7 5 1 9 9 359 357 5 7 1 0 360 358 358 358 1 6 6 6 11 12 4 359 1 2 3 3 349 341 345 345 340 340 348 352 346 340 333 322 328 344 348 357 27 30 18 9 7 3 355 349 351 350 338 324 305 275 278 302